Погода Нижний Новгород

Погода Нижний Новгород : погода сейчас, прогноз погоды и архив. Всё, что Вы хотите узнать о погоде Нижний Новгород!

Хотите узнать прогноз погоды в Нижнем Новгороде? Тогда Вам сюда: Погода в Нижнем Новгороде

Поиск расширенной информации на нашем сайте:

Другие новости

Новости СМИ2

Главная страница сайта

Новости сайта

03.07.2017

Напоминаем, что на нашем специализированном сайте Метеоцентр.Азия вы можете получить высокодетализированные автоматические прогнозы погоды по пунктам России, СНГ и мира в авиационном формате (включающие направление и скорость ветра, видимость, явления погоды, количество и форму облачности, нижнюю и верхнюю границу облачности).


Погода Нижний Новгород - сегодня

Время (UTC), дата Ветер
(°,м/с) 
Видим.   Явления Облачность Т
(°С)
Тd
(°С)
f(%) Тe
(°С)
Pmin
(гПа)
dP
(гПа)
Po
(мм)
O2
(г/м3)
Тmin Tmax R s Состояние
почвы
15 09.10.18 220 (ЮЗ) 1-2{03}  10 км    10/0 верхняя 
[Ci fib]
+4.8 -0.2 70 +6  1026.8  -0.3  755  299    +8.2       
00 10.10.18 260 (З) 1-3{04}  10 км    ясно 
+2.3 -1 79 +3  1025.6  -0.9  754  302           
03 10.10.18 240 (ЮЗ) 1-4{04}  10 км    8/0 верхняя 
[Ci fib]
+2.8 -0.8 77 +4  1024  -1.6  753  301  +2         
15 10.10.18 260 (З) 2-7{10}  10 км    10/0 средняя 
[Ac As]
+11.7 +0.6 46 +12  1014.3  747  288    +11.8       
00 11.10.18 320 (СЗ) 3-8{09}  10 км    ясно 
+8.3 +4.6 77 +8  1017.9  2.7  749  292           
03 11.10.18 310 (СЗ) 2-6{09}  10 км  {ливн. осадки}  8/8 600 м кучево-дожд. 
[Cb cap]
+6.8 +3.5 79 +7  1020.5  2.5  751  295  +6.8    0.0     
09 11.10.18 320 (СЗ) 4-10{11}  10 км    6/6 600 м кучево-дожд. 
[Cb cap]
+8.3 +1.1 60 +7  1023.4  1.2  753  294           
18 11.10.18 310 (СЗ) 1-2{06}  10 км    ясно 
+5.1 +2.1 81 +6  1027.8  1.4  756  299           
21 11.10.18 310 (СЗ) 1-2{05}  10 км    ясно 
+4.3 +1.5 82 +5  1029.4  1.5  757  300           
00 12.10.18 310 (СЗ) 1-2{04}  10 км    ясно 
+2.7 +1.7 93 +3  1030.2  0.7  758  302           
03 12.10.18 270 (З) 1-1{03}  10 км    8/8 300 м 
[St]
+1 +0.7 98 +2  1031.2  0.9  758  304  +0.9         
15 12.10.18 280 (З) 2-5{06}  10 км  {дождь}  10/10 300 м 
[Frnb]
+8.4 +3 69 +8  1026.1  -2.1  755  295    +8.5  0.0     
03 13.10.18 350 (С) 1-3{06}  10 км    10/10 600 м 
[Sc]
+8.6 +6.4 86 +10  1024.4  0.3  754  293  +8.4         
15 13.10.18 280 (З) 1-3{04}  10 км  в посл. час дождь  10/10 300 м 
[Sc]
+8.4 +5.9 84 +9  1024.6  -0.4  754  294    +9.5  0.0     
03 14.10.18 080 (В) 2-3{04}  10 км    10/10 300 м 
[Sc]
+6.8 +6.4 97 +7  1024  753  295  +6.8         
15 14.10.18 тихо () -0{02}  4000 м  слаб. дождь  10/10 300 м 
[Frnb]
+7.9 +7 94 +8  1022.6  -0.9  752  293    +8.3     
03 15.10.18 280 (З) 1-2{04}  2000 м  дымка  10/10 200 м 
[St]
+10.6 +10.2 97 +13  1021.1  0.5  752  290  +7.8    0.7     
09 15.10.18 310 (СЗ) 2-4{08}  10 км    ясно 
+14 +10.6 80 +17  1021.8  0.4  752  286           
12 15.10.18 310 (СЗ) 2-5{05}  10 км    ясно 
+19.2 +9.8 54 +21  1021.2  -0.3  752  281           
18 15.10.18 280 (З) 2-5{05}  10 км    ясно 
+13.1 +8.2 72 +14  1022.8  0.2  753  288           
21 15.10.18 280 (З) 2-5{05}  10 км    ясно 
+10.5 +8.5 87 +11  1023.2  0.3  753  291           
00 16.10.18 290 (З) 2-5{05}  10 км    ясно 
+8.8 +8.4 97 +9  1023.3  753  292           
03 16.10.18 280 (З) 2-4{05}  4000 м    ясно 
+8.2 +8 99 +8  1023.4  753  293  +8.2         
15 16.10.18 260 (З) 1-3{05}  10 км    10/0 верхняя 
[Ci]
+13.1 +6.7 65 +14  1021.2  -0.9  752  288    +15.6       
03 17.10.18 280 (З) 2-5{05}  10 км    ясно 
+6.9 +4.1 82 +7  1019.8  0.7  750  294  +6.9         
Время (UTC), дата Ветер
(°,м/с) 
Видим.   Явления Облачность Т
(°С)
Тd
(°С)
f(%) Тe
(°С)
Pmin
(гПа)
dP
(гПа)
Po
(мм)
O2
(г/м3)
Тmin Tmax R s Состояние
почвы

Для получения пояснительной информации подведите курсор к названию столбца.

ПОГОДА Нижний Новгород - архив

Всё, что Вы хотите узнать о погоде Нижний Новгород - удобно и подробно!

Выберите нужную дату (начиная с 1 января 2015* года) и нажмите кнопку "Найти".
Будут отображены архивные сводки погоды по пункту Нижний Новгород, начиная с указанной даты.


Отображать данные в формате CSV (для использования в таблицах Excel)


Внимание! Наш архив погоды предназначен исключительно для личного некоммерческого использования в познавательных целях. Если Вам необходимы официальные справки о состоянии погоды (для производственных, юридических, коммерческих и т.п. целей), обращайтесь в органы Росгидромета.

*Примечание: данная дата относится к архиву по метеостанциям СССР (Россия, СНГ, Балтия).
Архив по метеостанциям Зарубежной Европы и Азии (кроме Китая) хранится 10 дней, по другим регионам земного шара (Китай, Африка, Америка, Австралия, Океания) - 1 день.

Нижний Новгород - район местоположения метеостанции


Название, широта, долгота, высота метеостанции:
Нижний Новгород (Мыза) 56.3°ш. 44°д. 157 м над ур. моря [Российская Федерация]

Дополнительная информация

В oтличие oт бoльшинства пoгoдных сайтoв мы публикуем пoдрoбную метеoинфoрмацию в детальнoм прoфессиoнальнoм фoрмате.

Характеристики температуры и влажнoсти вoздуха измеряются на высoте 2 м в тени вдали oт зданий и деревьев.
Скoрoсть ветра измеряется на высoте 10 м (на урoвне рoста челoвека скoрoсть ветра ниже в 1.5-2 раза). Если метеoстанция нахoдится в гoрoде или в лесу, тo скoрoсть ветра занижена на 2-4 м/с пo сравнению с oткрытым местoм. Скoрoсть ветра над акватoриями крупных рек и oзёр, а также на вершинах хoлмoв на 2-5 м/с выше, чем в oбычных услoвиях.
Атмoсфернoе давление в разных тoчках местнoсти мoжет значительнo oтличаться oт давления на метеoстанции, в зависимoсти oт услoвий рельефа (при пoдъёме на 10 м давление пoнижается примернo на 1 мм рт.ст.).